ACA859 EGLL-CYYZ

Flight info

Callsign ACA859
Flight time N/A
Altitude 28000
Route CPT L9 BUCGO/N0449F240 L9 ARPAK/N0487F320 DCT FELCA DCT FADZU DCT OFSOX DCT BANBA DCT DOLIP DCT LIMRI/M084F330 DCT 5230N02000W 5230N03000W 52N040W 4930N05000W DCT IBERG/N0483F340 N376B MIILS Q907 AGNOB DCT UDNOX RAGID6
Aircraft B77W/H-SDE1E2E3FGHIJ2J3J4J5M1RWXY/LB1D1

Departure

Time N/A
Airport London Heathrow Airport (EGLL)

Arrival

Time 2026-05-06 18:59
Airport Toronto Pearson International Airport (CYYZ)
Time Latitude Longitude Altitude Speed Heading
2026-05-06 18:20 44.87751 -75.91646 34872 ft 429 kts 251°
2026-05-06 18:20 44.86830 -75.95625 34858 ft 426 kts 251°
2026-05-06 18:20 44.84989 -76.03555 34850 ft 427 kts 251°
2026-05-06 18:21 44.83142 -76.11486 34850 ft 427 kts 251°
2026-05-06 18:21 44.81290 -76.19406 34850 ft 427 kts 251°
2026-05-06 18:22 44.79426 -76.27352 34844 ft 428 kts 251°
2026-05-06 18:22 44.77561 -76.35275 34851 ft 427 kts 251°
2026-05-06 18:23 44.75686 -76.43205 34844 ft 427 kts 251°
2026-05-06 18:23 44.73810 -76.51119 34842 ft 428 kts 251°
2026-05-06 18:24 44.71922 -76.59051 34826 ft 429 kts 251°
2026-05-06 18:24 44.70023 -76.67001 34838 ft 430 kts 250°
2026-05-06 18:25 44.68115 -76.74957 34844 ft 428 kts 251°
2026-05-06 18:25 44.66209 -76.82881 34855 ft 427 kts 251°
2026-05-06 18:26 44.64295 -76.90811 34854 ft 428 kts 250°
2026-05-06 18:26 44.62409 -76.98595 34851 ft 428 kts 251°
2026-05-06 18:27 44.60488 -77.06498 34851 ft 428 kts 251°
2026-05-06 18:27 44.58568 -77.14370 34852 ft 427 kts 250°
2026-05-06 18:28 44.56642 -77.22238 34855 ft 427 kts 251°
2026-05-06 18:28 44.54716 -77.30079 34849 ft 427 kts 251°
2026-05-06 18:29 44.52774 -77.37955 34611 ft 430 kts 251°
2026-05-06 18:29 44.51804 -77.41883 34240 ft 426 kts 251°
2026-05-06 18:29 44.50839 -77.45780 33734 ft 423 kts 251°
2026-05-06 18:30 44.49879 -77.49651 33186 ft 420 kts 251°
2026-05-06 18:30 44.48928 -77.53479 32599 ft 416 kts 251°
2026-05-06 18:30 44.47982 -77.57284 32010 ft 413 kts 251°
2026-05-06 18:30 44.47041 -77.61057 31478 ft 409 kts 251°
2026-05-06 18:31 44.46109 -77.64793 31021 ft 405 kts 251°
2026-05-06 18:31 44.45170 -77.68546 30620 ft 413 kts 250°
2026-05-06 18:31 44.44339 -77.71867 30188 ft 412 kts 250°
2026-05-06 18:31 44.43448 -77.75418 29676 ft 408 kts 250°
2026-05-06 18:32 44.42515 -77.79134 29133 ft 403 kts 250°
2026-05-06 18:32 44.41593 -77.82800 28591 ft 398 kts 250°
2026-05-06 18:32 44.40678 -77.86430 28052 ft 394 kts 250°
2026-05-06 18:32 44.39772 -77.90018 27508 ft 389 kts 250°
2026-05-06 18:33 44.38875 -77.93568 26971 ft 385 kts 250°
2026-05-06 18:33 44.37994 -77.97049 26433 ft 381 kts 250°
2026-05-06 18:33 44.37111 -78.00533 25892 ft 377 kts 250°
2026-05-06 18:33 44.36240 -78.03962 25355 ft 373 kts 250°
2026-05-06 18:34 44.35234 -78.07276 24814 ft 369 kts 243°
2026-05-06 18:34 44.33981 -78.10374 24307 ft 366 kts 240°
2026-05-06 18:34 44.32710 -78.13440 23796 ft 363 kts 240°
2026-05-06 18:34 44.31448 -78.16471 23290 ft 360 kts 240°
2026-05-06 18:35 44.30193 -78.19466 22786 ft 357 kts 240°
2026-05-06 18:35 44.28946 -78.22432 22282 ft 354 kts 240°
2026-05-06 18:35 44.27705 -78.25379 21778 ft 351 kts 240°
2026-05-06 18:35 44.26486 -78.28265 21272 ft 348 kts 240°
2026-05-06 18:36 44.25257 -78.31171 20762 ft 345 kts 240°
2026-05-06 18:36 44.24037 -78.34054 20257 ft 343 kts 240°
2026-05-06 18:36 44.22829 -78.36901 19754 ft 340 kts 240°
2026-05-06 18:36 44.21664 -78.39646 19266 ft 338 kts 240°
2026-05-06 18:37 44.20468 -78.42448 18764 ft 336 kts 239°
2026-05-06 18:37 44.19260 -78.45204 18319 ft 332 kts 239°
2026-05-06 18:37 44.18065 -78.47917 18017 ft 324 kts 239°
2026-05-06 18:37 44.16903 -78.50551 17815 ft 315 kts 239°
2026-05-06 18:38 44.15758 -78.53144 17589 ft 317 kts 239°
2026-05-06 18:38 44.14591 -78.55787 17288 ft 321 kts 239°
2026-05-06 18:38 44.13426 -78.58421 16982 ft 318 kts 239°
2026-05-06 18:38 44.12271 -78.61032 16680 ft 315 kts 239°
2026-05-06 18:39 44.11120 -78.63632 16378 ft 315 kts 239°
2026-05-06 18:39 44.09982 -78.66198 16083 ft 308 kts 239°
2026-05-06 18:39 44.08966 -78.68486 15816 ft 302 kts 239°
2026-05-06 18:40 44.06802 -78.73358 15280 ft 293 kts 238°
2026-05-06 18:40 44.05731 -78.75765 15007 ft 295 kts 238°
2026-05-06 18:40 44.04648 -78.78198 14733 ft 295 kts 238°
2026-05-06 18:40 44.03573 -78.80611 14452 ft 293 kts 239°
2026-05-06 18:41 44.02505 -78.83006 14191 ft 293 kts 238°
2026-05-06 18:41 44.01434 -78.85405 13915 ft 292 kts 238°
2026-05-06 18:41 44.00361 -78.87808 13651 ft 293 kts 238°
2026-05-06 18:41 43.99283 -78.90219 13379 ft 294 kts 239°
2026-05-06 18:42 43.98209 -78.92620 13107 ft 293 kts 239°
2026-05-06 18:42 43.97142 -78.95004 12835 ft 289 kts 239°
2026-05-06 18:42 43.96090 -78.97350 12562 ft 284 kts 239°
2026-05-06 18:42 43.95046 -78.99679 12291 ft 285 kts 239°
2026-05-06 18:43 43.93997 -79.02016 12016 ft 285 kts 239°
2026-05-06 18:43 43.92952 -79.04343 11736 ft 283 kts 239°
2026-05-06 18:43 43.91917 -79.06644 11451 ft 279 kts 239°
2026-05-06 18:43 43.90897 -79.08912 11172 ft 275 kts 239°
2026-05-06 18:44 43.89918 -79.11084 11012 ft 276 kts 239°
2026-05-06 18:44 43.88864 -79.13425 10879 ft 280 kts 239°
2026-05-06 18:44 43.87830 -79.15717 10740 ft 280 kts 239°
2026-05-06 18:44 43.86802 -79.17995 10618 ft 278 kts 239°
2026-05-06 18:45 43.85774 -79.20271 10488 ft 279 kts 239°
2026-05-06 18:45 43.84749 -79.22539 10357 ft 278 kts 239°
2026-05-06 18:45 43.83722 -79.24810 10136 ft 278 kts 239°
2026-05-06 18:45 43.82717 -79.27069 9874 ft 273 kts 244°
2026-05-06 18:46 43.82100 -79.29523 9662 ft 274 kts 255°
2026-05-06 18:46 43.81623 -79.32083 9423 ft 273 kts 255°
2026-05-06 18:46 43.81154 -79.34625 9256 ft 273 kts 255°
2026-05-06 18:46 43.80697 -79.37102 9109 ft 274 kts 256°
2026-05-06 18:47 43.80225 -79.39655 8948 ft 274 kts 256°
2026-05-06 18:47 43.79752 -79.42211 8767 ft 275 kts 256°
2026-05-06 18:47 43.79278 -79.44771 8577 ft 274 kts 256°
2026-05-06 18:47 43.78809 -79.47299 8411 ft 273 kts 256°
2026-05-06 18:48 43.78324 -79.49843 8223 ft 275 kts 252°
2026-05-06 18:48 43.77573 -79.52282 8043 ft 274 kts 246°
2026-05-06 18:48 43.76733 -79.54668 7861 ft 275 kts 245°
2026-05-06 18:48 43.75891 -79.57035 7676 ft 271 kts 245°
2026-05-06 18:49 43.75062 -79.59342 7492 ft 264 kts 245°
2026-05-06 18:49 43.74248 -79.61596 7312 ft 262 kts 245°
2026-05-06 18:49 43.73426 -79.63862 7130 ft 264 kts 245°
2026-05-06 18:49 43.72599 -79.66129 6936 ft 263 kts 245°
2026-05-06 18:50 43.71768 -79.68407 6684 ft 266 kts 245°
2026-05-06 18:50 43.70932 -79.70692 6352 ft 266 kts 245°
2026-05-06 18:50 43.70099 -79.72964 6017 ft 265 kts 245°
2026-05-06 18:50 43.69267 -79.75225 5653 ft 264 kts 245°
2026-05-06 18:51 43.68437 -79.77476 5316 ft 263 kts 245°
2026-05-06 18:51 43.67606 -79.79724 4968 ft 263 kts 245°
2026-05-06 18:51 43.66692 -79.81910 4625 ft 263 kts 235°
2026-05-06 18:51 43.65566 -79.83889 4323 ft 263 kts 233°
2026-05-06 18:52 43.64422 -79.85840 4065 ft 260 kts 233°
2026-05-06 18:52 43.63288 -79.87771 3805 ft 257 kts 233°
2026-05-06 18:52 43.62169 -79.89675 3555 ft 253 kts 233°
2026-05-06 18:52 43.60979 -79.91438 3314 ft 250 kts 218°
2026-05-06 18:53 43.59386 -79.92323 3063 ft 246 kts 193°
2026-05-06 18:53 43.57710 -79.92503 2938 ft 236 kts 171°
2026-05-06 18:53 43.56166 -79.91816 2955 ft 234 kts 159°
2026-05-06 18:53 43.54792 -79.90637 2940 ft 232 kts 130°
2026-05-06 18:54 43.54057 -79.88683 2950 ft 232 kts 103°
2026-05-06 18:54 43.53861 -79.86506 2943 ft 225 kts 82°
2026-05-06 18:54 43.54373 -79.84611 2917 ft 202 kts 46°
2026-05-06 18:54 43.55428 -79.83441 2949 ft 194 kts 33°
2026-05-06 18:55 43.56430 -79.82229 2933 ft 190 kts 41°
2026-05-06 18:55 43.57351 -79.80912 2942 ft 192 kts 43°
2026-05-06 18:55 43.58268 -79.79586 2939 ft 191 kts 43°
2026-05-06 18:55 43.59187 -79.78264 2929 ft 191 kts 43°
2026-05-06 18:56 43.60108 -79.76940 2677 ft 189 kts 42°
2026-05-06 18:56 43.60990 -79.75667 2429 ft 178 kts 41°
2026-05-06 18:56 43.61842 -79.74443 2213 ft 173 kts 41°
2026-05-06 18:56 43.62617 -79.73325 1998 ft 159 kts 40°
2026-05-06 18:57 43.63364 -79.72250 1786 ft 151 kts 40°
2026-05-06 18:57 43.64082 -79.71217 1553 ft 146 kts 39°
2026-05-06 18:57 43.64793 -79.70215 1266 ft 147 kts 40°
2026-05-06 18:57 43.65504 -79.69188 1084 ft 147 kts 41°
2026-05-06 18:58 43.66215 -79.68156 934 ft 148 kts 41°
2026-05-06 18:58 43.66921 -79.67129 760 ft 146 kts 41°
2026-05-06 18:58 43.67624 -79.66109 595 ft 144 kts 41°
2026-05-06 18:58 43.68261 -79.65201 555 ft 115 kts 45°
2026-05-06 18:59 43.68710 -79.64533 560 ft 70 kts 52°
2026-05-06 18:59 43.68989 -79.64164 560 ft 43 kts 44°
2026-05-06 18:59 43.69144 -79.63915 563 ft 22 kts 50°
2026-05-06 18:59 43.69144 -79.63763 563 ft 15 kts 130°
2026-05-06 19:00 43.69065 -79.63662 563 ft 15 kts 136°
2026-05-06 19:00 43.68990 -79.63563 563 ft 14 kts 135°
2026-05-06 19:00 43.68923 -79.63468 562 ft 14 kts 137°
2026-05-06 19:00 43.68842 -79.63370 560 ft 16 kts 138°
2026-05-06 19:01 43.68760 -79.63262 560 ft 16 kts 135°
2026-05-06 19:01 43.68674 -79.63147 560 ft 17 kts 136°
2026-05-06 19:01 43.68585 -79.63032 558 ft 17 kts 136°
2026-05-06 19:01 43.68499 -79.62915 556 ft 17 kts 135°
2026-05-06 19:02 43.68409 -79.62802 556 ft 17 kts 136°
2026-05-06 19:02 43.68324 -79.62692 556 ft 16 kts 137°
2026-05-06 19:02 43.68239 -79.62585 556 ft 16 kts 136°
2026-05-06 19:02 43.68154 -79.62474 556 ft 17 kts 137°
2026-05-06 19:03 43.68059 -79.62351 556 ft 18 kts 137°
2026-05-06 19:03 43.67966 -79.62230 556 ft 17 kts 137°
2026-05-06 19:03 43.67916 -79.62129 556 ft 10 kts 83°
2026-05-06 19:03 43.67966 -79.62029 556 ft 14 kts 54°
2026-05-06 19:04 43.67978 -79.61938 556 ft 8 kts 97°
2026-05-06 19:04 43.67970 -79.61862 556 ft 6 kts 98°
2026-05-06 19:04 43.67964 -79.61814 556 ft 1 kts 99°
2026-05-06 19:04 43.67964 -79.61813 556 ft 0 kts 99°